Retour au catalogue

STARLINK-11715

ActifCommunicationsVLEO
NORAD 64076·PAYLOAD·🇺🇸 United States

Lancé May 21, 2025 depuis Cape Canaveral Space Force Station

Loading…

Prochains Passages (prochaines 24 heures)

TLE

FraisSource: CelesTrak SupGP

Époque: Sep 14, 2026, 22:47 UTC

1 64076C 25107N   26257.94979167  .00068048  00000+0  52812-3 0  2575
2 64076  43.0010  37.2197 0001727 270.8998 178.7791 15.70822477    16

Suivez STARLINK-11715 en temps réel avec AllMySat

Download on the App Store